Location: Wien
(48.2082°N, 16.3738°E)
Time: 19:01:32
(UTC+02:00)

DOVE 4 - Pass Details

Date: 27 March 2019
Orbit: 589 x 801 km, 97.8° (Epoch: 19 October)

Event Time Altitude Azimuth Distance (km) Brightness Sun altitude
Rises 04:00:20 0° 6° (N) 2,930 ? -17.5°
Reaches altitude 10° 04:02:42 10° 357° (N) 1,991 ? -17.1°
Maximum altitude 04:06:35 34° 293° (WNW) 999 ? -16.5°
Enters shadow 04:07:34 30° 264° (W) 1,084 ? -16.4°
